Weather History for KAPC - October, 2012

Change the Weather History Date:

Thursday, October 11, 2012

  Actual Average Record
Temperature  
Mean Temperature 57 °F 60 °F  
Max Temperature 60 °F 76 °F 89 °F (2004)
Min Temperature 54 °F 44 °F 38 °F (2003)
Degree Days  
Heating Degree Days 8    
Month to date heating degree days 43  
Since 1 July heating degree days 178  
Cooling Degree Days 0    
Month to date cooling degree days 22  
Year to date cooling degree days 190  
Growing Degree Days 6 (Base 50)    
Moisture  
Dew Point 51 °F    
Average Humidity 81    
Maximum Humidity 93    
Minimum Humidity 69    
Precipitation  
Precipitation 0.00 in - 1.83 in (1963)
Month to date precipitation 0.02  
Year to date precipitation 13.79  
Since 1 July precipitation 0.02  
Sea Level Pressure  
Sea Level Pressure 29.91 in    
Wind  
Wind Speed 9 mph (West)    
Max Wind Speed 16 mph    
Max Gust Speed 20 mph    
Visibility 10 miles    
Events      
T = Trace of Precipitation, MM = Missing Value Source: NWS Daily Summary

Daily Weather History Graph

Daily Weather History Graph

Search for Another Location

Airport or City:

Trip Planner

Search our weather history database for the weather conditions in past years. The results will help you decide how hot, cold, wet, or windy it might be!

Date:

Astronomy

Oct. 11, 2012 Rise Set
Actual Time 7:14 AM PDT 6:36 PM PDT
Civil Twilight 6:48 AM PDT 7:02 PM PDT
Nautical Twilight 6:17 AM PDT 7:33 PM PDT
Astronomical Twilight 5:46 AM PDT 8:03 PM PDT
Moon 3:02 AM PDT (10/11) 4:12 PM PDT (10/11)
Length of Visible Light 12h 14m
Length of Day
11h 21m
Waning Crescent, 17% of the Moon is Illuminated
Oct 11
Waning Crescent
Oct 15
New
Oct 21
First Quarter
Oct 29
Full
Nov 6
Last Quarter

Hourly Weather History & Observations

Time (PDT) Temp. Dew Point Humidity Pressure Visibility Wind Dir Wind Speed Gust Speed Precip Events Conditions
12:47 AM 55.4 °F 51.8 °F 88% 29.93 in 10.0 mi West 13.8 mph 19.6 mph N/A   Mostly Cloudy
12:54 AM 55.0 °F 51.1 °F 86% 29.91 in 10.0 mi West 13.8 mph - N/A   Mostly Cloudy
1:36 AM 55.4 °F 51.8 °F 88% 29.93 in 10.0 mi West 12.7 mph - N/A   Partly Cloudy
1:54 AM 55.0 °F 51.1 °F 86% 29.91 in 10.0 mi West 11.5 mph - N/A   Mostly Cloudy
2:07 AM 55.4 °F 51.8 °F 88% 29.93 in 10.0 mi West 6.9 mph - N/A   Overcast
2:47 AM 53.6 °F 50.0 °F 88% 29.93 in 10.0 mi West 6.9 mph - N/A   Scattered Clouds
2:54 AM 54.0 °F 50.0 °F 86% 29.91 in 10.0 mi West 6.9 mph - N/A   Mostly Cloudy
3:43 AM 53.6 °F 50.0 °F 88% 29.92 in 10.0 mi WSW 5.8 mph - N/A   Mostly Cloudy
3:54 AM 55.0 °F 51.1 °F 86% 29.89 in 10.0 mi WSW 6.9 mph - N/A   Overcast
4:54 AM 55.0 °F 51.1 °F 86% 29.88 in 10.0 mi WSW 6.9 mph - N/A   Overcast
5:54 AM 55.0 °F 50.0 °F 83% 29.88 in 10.0 mi West 9.2 mph - N/A   Overcast
6:54 AM 55.0 °F 50.0 °F 83% 29.87 in 10.0 mi West 6.9 mph - N/A   Overcast
7:54 AM 55.0 °F 50.0 °F 83% 29.88 in 10.0 mi West 8.1 mph - N/A   Overcast
8:54 AM 55.0 °F 51.1 °F 86% 29.88 in 10.0 mi West 8.1 mph - N/A   Overcast
9:54 AM 55.9 °F 51.1 °F 84% 29.89 in 10.0 mi West 8.1 mph - N/A   Overcast
11:02 AM 57.2 °F 50.0 °F 77% 29.91 in 10.0 mi WSW 9.2 mph - N/A   Overcast
11:54 AM 57.9 °F 50.0 °F 75% 29.88 in 10.0 mi West 12.7 mph - N/A   Overcast
12:54 PM 59.0 °F 50.0 °F 72% 29.86 in 10.0 mi West 11.5 mph - N/A   Overcast
1:54 PM 60.1 °F 50.0 °F 69% 29.86 in 10.0 mi WSW 13.8 mph - N/A   Overcast
3:54 PM 59.0 °F 51.1 °F 75% 29.88 in 10.0 mi WSW 12.7 mph - N/A   Overcast
4:54 PM 59.0 °F 50.0 °F 72% 29.88 in 10.0 mi WSW 11.5 mph - N/A   Overcast
5:54 PM 57.0 °F 51.1 °F 81% 29.89 in 10.0 mi WSW 10.4 mph - N/A   Overcast
6:54 PM 57.0 °F 48.9 °F 74% 29.90 in 10.0 mi West 10.4 mph - N/A   Overcast
7:54 PM 57.0 °F 50.0 °F 77% 29.91 in 10.0 mi WSW 5.8 mph - N/A   Overcast
8:54 PM 55.0 °F 51.1 °F 86% 29.93 in 10.0 mi West 11.5 mph - N/A   Overcast
9:38 PM 55.4 °F 51.8 °F 88% 29.96 in 6.0 mi West 8.1 mph - N/A   Overcast
9:54 PM 54.0 °F 52.0 °F 93% 29.94 in 6.0 mi WSW 5.8 mph - N/A   Overcast
10:08 PM 53.6 °F 51.8 °F 94% 29.96 in 10.0 mi WSW 6.9 mph - N/A   Overcast
10:54 PM 55.0 °F 51.1 °F 86% 29.94 in 10.0 mi West 5.8 mph - N/A   Overcast
11:16 PM 55.4 °F 51.8 °F 88% 29.96 in 10.0 mi WSW 8.1 mph - N/A   Overcast
11:54 PM 55.0 °F 51.1 °F 86% 29.94 in 10.0 mi WSW 8.1 mph - N/A   Overcast